Total_Precipitation_Accumulation
0.00 0.00 0.00 0.00 0.00 0.00 0.00 0.00 0.00 0.00 0.00 0.00 0.00 0.00 0.00 0.00 0.00 0.00 0.00 0.00 0.00 0.00 0.01 0.01 0.01 0.01 0.00 0.00 0.00 0.00 0.00 0.00 0.00 0.00 0.00 0.00 0.01 0.01 0.01 0.01 0.11 0.14 0.03
0.00 0.00 0.00 0.00 0.00 0.00 0.00 0.00 0.00 0.00 0.00 0.00 0.00 0.01 0.00 0.00 0.00 0.00 0.00 0.00 0.00 0.00 0.00 0.00 0.00 0.00 0.00 0.00 0.00 0.00 0.00 0.00 0.00 0.00 0.00 0.00 0.01 0.01 0.01 0.01 0.09 0.08 0.01
0.00 0.00 0.00 0.00 0.00 0.00 0.00 0.00 0.00 0.00 0.00 0.00 0.00 0.00 0.00 0.00 0.00 0.00 0.00 0.00 0.00 0.00 0.00 0.00 0.00 0.00 0.00 0.00 0.00 0.00 0.00 0.00 0.00 0.00 0.01 0.02 0.00 0.00 0.00 0.00 0.00 0.00 0.00
0.00 0.00 0.00 0.00 0.00 0.00 0.00 0.00 0.00 0.00 0.00 0.00 0.00 0.00 0.00 0.00 0.00 0.00 0.00 0.00 0.00 0.00 0.00 0.00 0.00 0.00 0.00 0.00 0.00 0.00 0.00 0.00 0.00 0.00 0.03 0.10 0.02 0.00 0.00 0.00 0.00 0.00 0.00
0.00 0.00 0.00 0.00 0.00 0.00 0.00 0.00 0.00 0.00 0.00 0.00 0.00 0.00 0.00 0.00 0.00 0.00 0.00 0.00 0.00 0.00 0.00 0.00 0.00 0.00 0.00 0.00 0.00 0.00 0.00 0.00 0.00 0.00 0.01 0.05 0.05 0.03 0.00 0.00 0.00 0.00 0.00
0.00 0.00 0.00 0.00 0.00 0.00 0.00 0.00 0.00 0.00 0.00 0.00 0.00 0.00 0.00 0.01 0.01 0.00 0.00 0.00 0.00 0.00 0.00 0.00 0.00 0.00 0.00 0.00 0.00 0.00 0.01 0.01 0.00 0.00 0.01 0.03 0.11 0.11 0.04 0.07 0.05 0.02 0.01
0.00 0.00 0.00 0.00 0.00 0.00 0.00 0.00 0.00 0.00 0.00 0.00 0.00 0.00 0.00 0.01 0.01 0.01 0.00 0.00 0.00 0.00 0.00 0.00 0.00 0.00 0.00 0.00 0.00 0.00 0.00 0.01 0.01 0.02 0.04 0.08 0.13 0.14 0.14 0.27 0.29 0.20 0.11
0.00 0.00 0.00 0.00 0.00 0.00 0.00 0.00 0.00 0.00 0.00 0.00 0.00 0.00 0.00 0.00 0.00 0.00 0.00 0.00 0.01 0.02 0.01 0.00 0.00 0.00 0.00 0.00 0.00 0.01 0.01 0.01 0.00 0.00 0.01 0.06 0.13 0.17 0.29 0.46 0.46 0.38 0.30
0.00 0.00 0.00 0.00 0.00 0.01 0.01 0.01 0.01 0.00 0.00 0.00 0.00 0.00 0.00 0.00 0.00 0.00 0.00 0.00 0.01 0.02 0.03 0.02 0.01 0.00 0.01 0.01 0.02 0.02 0.02 0.03 0.01 0.02 0.02 0.02 0.06 0.09 0.25 0.38 0.35 0.32 0.30
0.00 0.00 0.00 0.00 0.00 0.00 0.00 0.01 0.01 0.01 0.01 0.01 0.00 0.00 0.00 0.00 0.01 0.01 0.02 0.02 0.02 0.02 0.03 0.03 0.03 0.03 0.05 0.06 0.07 0.07 0.07 0.04 0.02 0.01 0.02 0.03 0.07 0.15 0.28 0.31 0.27 0.27 0.27
0.00 0.00 0.00 0.00 0.00 0.00 0.00 0.00 0.01 0.01 0.01 0.01 0.01 0.01 0.01 0.01 0.06 0.11 0.15 0.19 0.15 0.11 0.08 0.07 0.08 0.10 0.11 0.06 0.11 0.23 0.17 0.03 0.02 0.01 0.01 0.02 0.10 0.25 0.36 0.32 0.29 0.28 0.27
0.00 0.00 0.00 0.00 0.00 0.00 0.00 0.00 0.00 0.00 0.01 0.01 0.03 0.09 0.11 0.15 0.14 0.08 0.23 0.27 0.24 0.24 0.18 0.17 0.30 0.24 0.12 0.07 0.29 0.72 0.27 0.07 0.06 0.05 0.04 0.06 0.17 0.36 0.48 0.34 0.28 0.30 0.29
0.01 0.01 0.00 0.00 0.01 0.00 0.00 0.00 0.00 0.01 0.06 0.06 0.07 0.14 0.25 0.26 0.16 0.08 0.10 0.22 0.31 0.35 0.27 0.35 0.44 0.23 0.18 0.23 0.30 0.44 0.30 0.18 0.12 0.14 0.18 0.20 0.31 0.51 0.57 0.38 0.30 0.29 0.29
0.02 0.02 0.01 0.01 0.01 0.01 0.01 0.01 0.01 0.02 0.05 0.07 0.12 0.16 0.29 0.28 0.21 0.16 0.16 0.16 0.24 0.28 0.39 0.37 0.33 0.33 0.34 0.28 0.28 0.26 0.32 0.38 0.27 0.31 0.37 0.29 0.31 0.48 0.60 0.47 0.35 0.30 0.28
0.04 0.04 0.05 0.05 0.03 0.02 0.03 0.03 0.03 0.03 0.04 0.06 0.15 0.20 0.28 0.35 0.30 0.32 0.31 0.25 0.18 0.27 0.40 0.47 0.47 0.48 0.43 0.37 0.32 0.25 0.25 0.32 0.40 0.46 0.45 0.44 0.52 0.56 0.55 0.55 0.44 0.32 0.27
0.08 0.11 0.15 0.16 0.12 0.09 0.07 0.09 0.11 0.12 0.14 0.17 0.25 0.33 0.45 0.54 0.56 0.58 0.50 0.43 0.34 0.38 0.43 0.55 0.56 0.61 0.50 0.49 0.31 0.29 0.32 0.31 0.38 0.43 0.43 0.61 0.70 0.56 0.46 0.45 0.42 0.35 0.28
0.21 0.25 0.29 0.35 0.36 0.30 0.28 0.26 0.27 0.27 0.32 0.44 0.54 0.58 0.72 0.87 0.91 0.86 0.69 0.49 0.49 0.65 0.73 0.63 0.56 0.68 0.46 0.42 0.38 0.46 0.49 0.40 0.34 0.35 0.36 0.44 0.55 0.48 0.38 0.32 0.36 0.36 0.34
0.51 0.55 0.60 0.66 0.67 0.70 0.70 0.60 0.56 0.53 0.59 0.66 0.66 0.60 0.65 0.80 0.84 0.84 0.60 0.37 0.50 0.75 0.83 0.76 0.71 0.71 0.60 0.61 0.61 0.65 0.64 0.52 0.36 0.30 0.24 0.26 0.29 0.26 0.31 0.38 0.35 0.32 0.38
1.02 1.23 1.34 1.33 1.21 1.22 1.18 1.04 0.90 0.79 0.73 0.66 0.59 0.47 0.43 0.45 0.49 0.55 0.34 0.28 0.47 0.64 0.68 0.67 0.70 0.77 0.66 0.69 0.76 0.70 0.55 0.42 0.31 0.24 0.21 0.18 0.19 0.19 0.18 0.28 0.25 0.29 0.43
1.44 1.86 2.17 2.12 1.88 1.57 1.21 0.96 0.82 0.69 0.58 0.49 0.40 0.32 0.24 0.21 0.25 0.36 0.30 0.27 0.45 0.54 0.51 0.68 0.75 0.82 0.69 0.64 0.66 0.45 0.33 0.22 0.20 0.14 0.12 0.11 0.11 0.11 0.12 0.15 0.26 0.27 0.41
1.79 2.24 2.43 2.34 1.87 1.39 1.10 0.87 0.68 0.49 0.40 0.36 0.31 0.25 0.18 0.14 0.19 0.33 0.32 0.32 0.39 0.43 0.41 0.56 0.67 0.68 0.51 0.71 0.79 0.37 0.17 0.10 0.10 0.08 0.07 0.07 0.07 0.10 0.15 0.18 0.23 0.29 0.46
1.79 2.28 2.33 1.87 1.40 1.05 0.82 0.64 0.48 0.37 0.33 0.31 0.24 0.19 0.14 0.15 0.19 0.24 0.25 0.26 0.30 0.34 0.34 0.39 0.48 0.52 0.44 0.70 0.79 0.64 0.33 0.16 0.10 0.06 0.09 0.10 0.12 0.14 0.18 0.23 0.33 0.43 0.54
1.64 1.68 1.41 1.12 0.86 0.66 0.54 0.45 0.41 0.32 0.28 0.22 0.16 0.13 0.13 0.15 0.17 0.17 0.17 0.21 0.26 0.28 0.31 0.36 0.47 0.58 0.49 0.54 0.74 0.84 0.58 0.29 0.24 0.17 0.19 0.24 0.26 0.31 0.34 0.42 0.52 0.59 0.66
1.13 0.98 0.80 0.69 0.57 0.50 0.48 0.37 0.38 0.31 0.23 0.16 0.11 0.11 0.13 0.13 0.11 0.10 0.13 0.23 0.30 0.35 0.40 0.39 0.44 0.52 0.54 0.47 0.54 0.68 0.71 0.67 0.55 0.30 0.21 0.23 0.30 0.34 0.38 0.44 0.49 0.59 0.63
0.61 0.56 0.46 0.52 0.57 0.51 0.46 0.38 0.30 0.22 0.15 0.11 0.12 0.15 0.16 0.12 0.10 0.09 0.08 0.13 0.24 0.32 0.36 0.37 0.39 0.44 0.50 0.49 0.47 0.51 0.61 0.71 0.68 0.52 0.29 0.21 0.28 0.31 0.39 0.46 0.52 0.57 0.61
0.26 0.25 0.24 0.31 0.38 0.37 0.36 0.34 0.30 0.25 0.21 0.18 0.17 0.17 0.16 0.15 0.13 0.11 0.09 0.11 0.14 0.17 0.20 0.26 0.30 0.34 0.38 0.41 0.44 0.47 0.51 0.54 0.58 0.66 0.52 0.40 0.36 0.37 0.47 0.55 0.65 0.71 0.71